RH
58 50 47 56 61 78 78 57 43 31 27 20 22 39 50 69 66 54 80 76 64 64 61 58 65 64 62 59 62 55 53 61 56 55 64 64 53 57 55 65 66 64 61 63 60 56 62 68 66
64 38 46 63 75 66 54 47 33 31 21 21 25 49 56 72 69 78 84 66 61 61 66 67 67 59 56 60 59 60 60 54 60 59 53 57 59 56 57 61 61 59 62 56 60 59 61 69 66
36 36 39 62 72 60 54 40 29 24 21 21 19 39 56 65 67 69 76 64 61 64 65 65 62 56 58 57 56 55 62 63 57 57 55 55 58 58 58 58 59 58 59 59 60 58 59 60 61
34 39 37 48 56 46 40 31 30 22 24 17 35 49 51 58 57 61 63 62 64 68 68 64 60 58 58 56 57 58 58 57 54 56 56 56 58 58 58 58 58 58 58 59 58 57 54 55 56
43 47 52 56 45 37 34 31 27 28 24 19 26 45 62 59 58 60 62 60 66 68 70 68 60 59 59 58 59 58 58 58 58 57 57 59 58 57 57 55 54 54 54 55 56 56 55 53 53
45 46 52 55 46 34 29 28 28 29 25 18 43 55 61 63 58 60 59 64 61 66 71 64 60 58 58 61 59 58 58 59 58 58 58 55 51 50 51 51 51 52 53 53 55 52 51 52 52
49 56 58 62 50 41 31 30 29 23 23 19 40 60 73 72 57 57 66 66 63 66 72 72 70 65 62 60 58 59 59 60 59 59 59 56 51 52 48 48 49 51 51 50 51 52 47 47 46
57 57 61 62 49 42 30 27 27 27 29 20 37 58 71 56 54 59 70 71 71 74 74 79 77 71 74 71 62 61 60 61 60 59 58 55 51 49 51 47 46 45 45 46 48 50 44 36 36
46 58 64 52 37 35 34 30 28 25 22 28 35 47 44 45 53 60 74 84 78 76 81 82 79 83 75 77 69 62 62 62 59 58 56 58 69 65 60 58 51 48 48 48 45 41 39 39 42
52 63 52 39 38 36 35 33 29 27 30 36 44 53 46 48 51 56 65 79 83 83 85 79 85 86 81 64 80 82 76 80 78 76 72 67 68 67 60 62 50 47 52 48 42 40 40 47 63
50 54 45 34 34 34 35 34 32 31 34 30 37 56 50 48 50 53 55 67 78 82 79 76 78 81 83 70 89 92 94 93 88 83 81 81 69 75 79 79 70 71 59 64 59 68 66 65 61
38 32 28 26 31 37 35 34 34 36 32 30 35 47 50 49 49 48 52 55 66 79 78 74 74 74 81 79 88 92 93 95 95 89 85 91 87 77 66 64 67 70 76 77 69 73 66 63 49
28 26 21 22 22 22 33 35 34 33 28 32 41 45 48 48 46 44 45 47 51 64 72 74 72 73 75 86 86 93 93 92 91 90 86 86 79 70 66 64 70 73 73 73 63 65 57 53 50
25 26 24 22 22 22 28 31 36 28 28 33 43 47 47 47 46 47 51 49 48 46 53 67 70 70 72 78 87 83 88 89 90 87 82 76 72 66 67 63 63 65 65 61 60 57 57 54 52
22 22 20 20 21 22 26 27 26 25 27 28 42 49 46 45 45 45 41 43 44 43 41 54 66 67 71 76 80 80 81 82 83 78 73 68 66 66 64 67 65 60 60 56 59 56 60 58 58
23 26 28 21 26 24 20 30 23 19 28 20 25 44 46 47 45 40 38 38 42 41 43 43 46 62 65 68 72 70 76 79 74 72 72 62 61 62 65 66 65 64 65 62 62 64 65 67 69
29 34 31 22 22 26 25 26 21 23 26 23 22 30 39 42 48 41 37 36 38 40 42 44 49 59 62 66 68 72 72 76 74 74 71 62 59 58 66 66 64 65 67 68 66 69 70 68 67
34 32 31 28 21 28 31 27 25 22 24 23 21 20 29 33 37 38 38 35 35 38 42 42 49 54 60 69 74 79 80 78 78 76 71 63 62 58 64 69 65 67 71 71 73 69 74 72 70
29 32 33 27 23 24 24 25 24 25 25 28 29 22 22 21 22 30 36 36 36 39 45 45 51 58 60 74 78 86 72 85 83 82 68 68 65 60 65 71 68 69 70 68 69 71 68 72 79
28 35 31 26 23 25 28 30 28 25 26 29 30 30 27 25 24 21 35 40 36 39 45 48 49 59 56 55 59 74 83 83 78 78 74 70 68 65 64 68 70 69 73 69 70 73 77 76 81
26 27 29 28 28 27 32 33 31 25 27 26 29 32 31 30 30 30 44 46 38 40 47 49 50 56 56 58 73 78 79 82 82 83 80 75 70 68 66 67 70 71 74 73 72 75 74 72 78
32 31 32 32 30 25 31 43 34 30 29 30 35 35 35 35 33 31 32 34 45 41 47 47 50 55 55 67 66 64 67 65 72 73 76 76 72 70 68 66 68 69 75 74 72 69 78 78 73
26 33 32 34 38 53 41 40 37 33 32 32 35 36 35 36 37 39 36 37 37 40 46 49 54 56 57 63 62 65 71 73 79 80 79 76 77 71 67 65 69 68 72 73 73 73 79 82 77
28 32 41 47 45 52 40 40 44 34 33 39 40 40 41 42 40 38 37 36 36 45 49 53 59 57 62 62 69 66 64 77 82 84 83 82 76 77 75 69 65 63 65 70 68 72 78 78 82
32 44 51 49 51 48 37 32 36 34 34 36 41 45 46 45 43 44 45 42 40 41 55 55 58 63 65 63 67 67 67 69 69 70 73 84 79 87 74 74 72 67 64 66 70 73 74 79 78
38 38 48 39 41 38 33 42 36 34 37 39 43 49 46 48 46 46 46 43 42 42 44 54 58 56 62 66 66 65 68 68 66 69 69 69 71 69 73 76 68 67 66 65 68 68 70 77 74
37 36 33 34 46 41 39 34 29 38 42 46 50 48 51 47 46 46 42 41 38 44 43 45 47 55 61 62 67 71 74 75 71 75 74 70 72 70 77 76 71 68 65 64 68 64 67 70 70
34 34 37 49 39 54 41 41 44 48 50 50 53 54 51 47 44 43 40 39 37 38 41 41 42 47 51 54 64 65 70 70 69 79 76 74 70 77 73 78 74 71 68 65 67 63 66 68 68
36 33 38 40 52 46 50 57 47 49 50 53 53 50 49 47 46 43 39 37 34 32 35 38 41 39 39 47 51 60 72 72 74 73 69 68 69 76 72 73 72 71 70 67 66 63 61 69 61
35 37 39 50 44 54 61 64 46 49 45 46 47 44 43 43 42 42 41 38 35 33 32 34 38 36 36 40 55 51 55 71 79 74 66 69 71 71 69 68 70 67 67 67 66 64 57 64 64
Wind_Speed
6 6 3 5 5 5 3 4 1 3 1 1 2 6 8 4 2 3 2 7 13 10 8 12 16 17 14 12 12 14 12 10 11 10 11 10 11 11 12 13 12 13 14 15 16 15 13 15 15
3 4 6 3 6 2 5 4 4 2 4 5 7 3 6 2 3 7 7 11 15 11 6 7 17 15 15 12 12 11 11 9 10 9 10 10 8 12 12 11 11 12 13 14 14 15 13 14 15
3 3 4 4 3 4 3 3 5 4 5 3 4 5 3 3 3 11 8 14 14 10 8 6 17 15 15 13 13 11 11 11 10 9 8 10 10 9 11 11 10 12 12 13 14 13 13 12 13
3 6 5 4 5 5 4 7 4 6 2 5 5 6 3 5 10 9 16 15 13 9 7 12 16 16 16 13 14 12 11 10 9 9 9 9 10 9 9 9 9 10 10 11 12 12 12 11 11
4 4 4 1 4 4 4 4 6 4 6 4 5 3 2 2 4 19 17 14 14 10 7 7 17 16 16 14 14 12 12 10 9 8 7 8 8 7 8 8 7 8 8 9 10 10 9 9 10
5 4 4 2 4 5 6 8 5 3 5 7 7 4 3 1 13 13 15 12 13 12 8 8 16 17 17 15 13 13 12 11 9 9 8 8 7 7 7 6 6 7 8 8 8 8 8 8 8
5 4 3 2 4 6 5 6 4 5 6 4 11 5 2 1 8 10 10 11 12 11 7 6 6 11 16 15 14 14 12 11 11 9 7 7 6 6 5 5 5 6 6 6 6 6 5 5 4
5 4 1 2 3 5 5 3 4 3 2 8 8 6 6 7 8 9 11 11 10 9 8 7 7 6 5 6 16 13 13 12 11 9 9 7 6 6 6 4 4 4 4 3 3 3 3 2 1
4 4 1 2 6 6 5 3 2 1 4 4 2 8 5 17 10 9 6 6 8 7 7 7 7 6 6 5 6 13 14 12 11 10 9 7 2 0 2 4 3 3 2 2 1 1 1 1 2
5 4 4 4 2 4 4 5 1 3 1 4 3 5 12 16 14 15 12 12 11 12 7 9 7 7 7 5 4 5 5 4 4 5 4 3 4 3 4 6 6 5 4 3 2 2 1 2 2
3 4 5 6 3 5 3 3 5 5 3 7 8 8 15 12 14 15 14 15 16 14 10 10 10 8 8 6 4 3 3 3 3 6 6 4 3 3 3 2 2 1 3 1 3 3 2 2 2
2 7 3 5 3 2 4 2 5 4 6 1 9 17 16 15 17 17 16 14 14 14 14 12 11 10 8 5 5 5 4 4 4 5 6 4 3 3 3 3 3 3 2 2 2 2 3 4 4
4 3 5 5 8 4 3 4 6 6 10 3 11 14 17 17 16 14 13 12 15 15 15 15 13 11 8 8 5 5 5 4 5 5 5 4 4 4 3 4 3 3 2 3 2 3 3 3 3
3 4 8 7 6 5 4 5 1 8 5 7 13 17 16 17 21 12 9 14 15 15 16 15 15 13 10 10 8 7 5 6 5 5 5 7 5 5 5 3 4 4 4 3 3 3 2 3 2
4 6 8 5 3 4 4 7 9 10 3 5 11 12 13 17 12 18 22 18 17 14 14 14 16 13 12 12 10 7 7 6 5 5 7 7 7 6 5 4 4 5 4 4 2 1 1 2 2
4 4 6 7 3 2 7 9 10 9 4 10 9 10 13 15 15 18 17 17 15 14 15 14 13 14 14 11 9 7 6 5 6 5 5 7 7 7 5 4 4 4 3 3 2 2 1 2 2
6 1 2 9 3 2 3 7 9 5 2 10 10 9 12 13 10 13 14 16 15 17 16 15 12 13 14 10 8 6 7 5 5 5 5 7 7 7 5 5 5 5 4 3 3 2 2 1 2
3 2 3 5 5 1 2 10 10 10 6 9 11 10 8 11 18 18 17 14 14 16 16 16 13 13 11 7 5 3 3 4 4 5 5 7 6 7 6 4 5 5 4 3 2 3 2 2 2
3 3 3 5 2 3 3 5 9 8 10 13 11 8 9 9 9 12 15 14 10 12 14 16 15 12 10 4 5 3 5 3 3 4 7 7 6 7 7 5 5 5 5 6 5 3 3 2 1
4 2 5 6 3 2 5 5 6 9 5 6 8 11 10 5 9 5 8 10 14 16 16 15 16 13 12 9 7 4 4 3 3 4 6 7 7 7 7 6 6 6 4 5 5 4 2 2 3
3 3 3 3 6 3 0 6 8 5 6 10 10 6 9 9 10 10 1 6 8 13 17 16 16 15 14 11 5 3 3 3 1 3 4 5 7 7 7 8 6 6 5 5 5 6 6 4 2
3 2 1 1 5 2 3 3 4 6 8 9 11 11 11 11 11 12 11 4 5 8 8 13 14 14 11 10 9 10 7 9 5 5 4 5 7 8 8 8 8 7 5 6 6 5 4 4 5
6 1 2 3 2 3 2 6 6 3 7 7 10 11 12 13 13 15 14 11 7 5 6 7 9 11 11 12 12 10 6 5 4 4 6 7 6 8 9 9 8 8 5 6 7 6 6 5 4
2 3 6 5 3 2 5 5 4 2 4 3 5 9 10 11 14 17 16 16 14 9 4 6 7 10 9 13 10 13 13 8 5 5 5 5 6 6 7 8 9 9 8 8 8 7 7 7 5
6 6 3 3 3 5 2 4 6 2 4 5 6 8 10 11 14 15 17 17 19 18 9 1 5 6 7 11 11 12 13 12 12 10 8 6 6 4 9 9 8 7 9 8 7 7 8 7 7
1 5 5 3 2 3 2 5 2 4 7 7 6 6 12 14 12 14 14 14 16 17 17 12 5 3 4 5 9 10 9 8 9 8 8 8 8 8 8 8 10 10 8 8 8 7 7 7 8
1 0 3 2 2 3 1 5 8 6 8 9 10 12 11 12 12 12 13 13 15 14 15 13 14 10 5 6 6 7 7 7 9 9 8 8 7 6 8 9 10 10 10 10 9 8 9 7 9
3 2 1 3 2 2 2 4 1 0 5 7 9 8 8 10 12 12 12 13 12 13 12 14 13 10 7 8 4 6 7 8 9 6 10 9 9 8 7 9 10 10 11 11 10 10 9 9 9
3 2 1 3 4 4 4 2 5 2 5 8 6 6 7 9 9 9 10 10 10 12 12 12 13 13 13 12 11 8 7 7 6 9 11 11 10 10 11 10 11 12 12 11 11 13 11 12 13
1 1 3 5 3 1 4 2 6 5 7 6 6 6 6 6 7 7 7 8 10 11 11 11 12 12 11 10 8 8 8 6 6 8 11 9 11 10 13 11 12 12 13 12 13 14 13 14 14
Wind_Direction
328 331 78 45 53 60 285 260 250 122 67 324 72 102 124 69 111 200 166 154 140 150 160 161 167 161 148 150 127 132 142 122 103 99 96 92 95 84 91 85 76 74 72 80 74 81 82 74 70
352 357 40 79 87 58 272 297 133 188 165 134 97 89 46 96 113 114 112 163 146 151 151 165 147 151 149 142 143 124 121 122 115 117 115 113 90 94 89 87 89 89 80 85 79 82 85 78 78
2 47 80 95 118 179 220 182 230 163 174 124 94 62 124 157 67 151 148 155 142 147 155 179 151 156 149 157 146 148 126 128 130 128 115 98 100 93 90 91 84 85 83 81 81 82 87 86 81
51 11 26 85 234 247 243 171 224 141 112 80 123 69 40 238 152 157 144 147 144 150 161 177 161 157 156 157 155 145 144 141 141 135 129 115 101 102 96 88 86 88 87 83 78 79 84 82 83
40 56 51 307 260 278 278 188 181 164 148 127 121 165 33 12 94 139 145 148 150 158 171 187 168 162 161 161 159 158 151 148 145 131 111 110 112 111 103 102 104 101 91 85 82 79 76 78 79
39 95 54 280 296 265 263 176 172 187 168 149 80 99 201 50 135 149 149 151 152 161 173 161 175 170 163 167 165 162 158 149 149 156 154 137 125 120 116 111 111 107 99 93 86 85 80 74 71
109 82 207 256 275 303 267 124 167 184 152 162 144 104 301 240 162 142 140 143 155 161 162 164 157 174 170 177 166 163 167 165 167 165 150 144 141 130 115 125 115 109 105 99 86 85 89 80 80
107 94 288 270 299 279 353 117 109 143 220 128 137 168 200 212 170 120 134 144 154 164 164 159 155 166 169 177 181 174 176 169 174 174 176 173 167 158 158 136 128 124 110 102 98 92 98 94 66
96 63 315 270 346 299 339 71 22 50 110 43 48 149 200 154 141 122 117 136 159 173 172 163 164 166 179 178 181 183 176 178 184 184 186 186 153 207 200 183 203 177 178 174 177 167 164 229 310
94 109 233 204 280 286 345 21 356 102 40 23 28 14 132 145 157 162 163 169 174 180 188 175 172 173 172 172 175 161 181 166 161 167 195 169 189 207 219 237 211 212 213 214 239 254 262 334 308
182 192 210 278 224 233 329 331 323 119 216 202 188 157 154 161 172 176 178 180 180 181 184 186 180 178 168 181 167 164 149 159 170 184 196 193 195 230 250 229 306 321 270 299 327 323 330 289 276
265 259 207 283 330 250 181 271 311 204 235 83 177 165 159 176 184 187 188 180 178 183 187 185 188 183 181 170 171 174 167 175 187 205 196 175 204 225 194 223 226 219 240 249 265 265 277 262 259
194 274 300 279 293 281 221 223 232 263 272 181 139 163 181 183 195 198 193 187 180 186 188 187 184 188 180 180 176 170 188 185 199 202 206 178 197 200 194 220 207 226 216 217 240 235 253 260 274
302 282 286 294 281 281 271 274 136 252 254 115 159 184 190 193 196 186 189 193 195 189 188 185 187 188 177 186 182 185 185 198 191 200 210 196 189 193 203 198 213 218 210 205 205 211 232 269 294
287 316 310 267 235 240 141 315 244 259 351 281 194 199 204 206 191 202 201 196 190 197 187 180 186 183 178 185 186 184 192 190 191 203 198 192 193 195 187 199 212 220 209 205 203 244 279 288 311
9 40 3 301 93 278 125 272 278 285 239 269 235 215 206 215 207 210 206 205 195 190 191 184 182 181 182 183 182 186 187 182 195 193 193 199 197 194 192 201 219 210 199 185 189 206 291 284 285
13 302 297 319 320 88 125 269 269 315 272 287 281 211 211 222 223 225 215 205 195 193 186 186 184 177 180 179 179 178 186 185 197 190 194 202 202 198 190 204 217 196 187 187 191 200 184 251 291
266 314 292 256 310 43 275 273 304 303 308 289 288 281 207 220 220 213 210 202 195 193 189 186 182 180 176 166 159 169 175 201 189 195 198 201 205 199 190 204 205 185 174 203 187 195 214 223 246
226 223 259 259 249 353 294 324 318 337 31 4 340 301 267 228 264 242 210 197 183 185 183 187 180 181 166 160 163 175 200 193 210 199 201 201 207 205 192 200 202 188 192 203 189 172 207 286 215
243 302 295 291 322 87 17 27 308 16 357 335 332 12 18 36 355 290 206 176 182 183 186 183 189 179 183 184 184 159 158 187 183 195 209 205 203 205 197 197 203 196 191 209 198 174 171 232 189
270 218 252 236 326 12 117 9 354 337 4 10 10 343 21 23 10 360 296 203 173 180 184 185 187 184 185 181 126 85 76 46 176 232 220 218 206 207 203 200 199 200 192 202 197 185 183 205 253
290 184 114 346 51 244 39 253 330 333 7 17 4 12 11 8 0 12 13 32 181 207 183 183 183 182 183 166 170 186 186 203 212 206 205 220 208 209 204 205 201 202 192 206 207 195 187 156 215
234 288 245 197 111 28 317 94 267 5 31 1 1 18 25 24 22 12 3 358 349 165 193 192 173 175 179 181 185 186 191 197 182 181 201 217 221 212 208 207 204 207 203 212 203 193 198 192 177
350 19 34 52 96 15 233 122 259 189 147 56 22 25 22 18 24 27 25 24 15 7 156 165 180 183 170 181 186 190 199 190 181 201 207 215 217 217 218 208 209 213 209 207 212 211 200 203 204
64 48 341 358 13 215 142 68 241 125 99 109 74 36 35 35 36 32 26 21 22 19 12 92 174 214 188 184 189 198 205 202 205 204 207 198 218 217 223 209 212 214 217 213 201 204 211 202 205
244 142 158 269 217 271 329 138 124 85 82 62 43 42 45 38 33 32 28 28 28 25 26 24 18 271 235 234 213 207 207 206 214 210 206 214 212 217 214 207 216 217 211 212 207 216 221 203 216
360 258 193 122 7 60 231 72 49 21 49 48 47 44 37 33 29 30 28 27 28 23 23 23 25 17 358 275 275 237 223 215 210 213 209 216 215 214 210 205 213 218 217 211 205 221 225 219 220
195 227 352 12 235 231 359 76 97 97 74 52 43 41 38 37 31 25 24 21 19 17 13 17 18 17 358 353 300 241 238 237 224 209 217 216 223 217 217 209 214 216 217 216 207 219 219 215 225
354 310 72 128 140 179 149 291 359 153 102 92 55 44 48 44 35 28 20 13 17 19 15 10 9 6 3 356 344 323 275 240 225 226 229 226 225 216 222 218 218 219 219 214 215 224 223 217 228
246 211 116 122 253 147 133 247 13 29 46 60 48 43 39 46 35 25 14 7 12 13 11 7 4 4 357 346 342 348 351 319 263 244 243 235 225 219 225 223 222 224 222 215 215 222 223 222 226